Location: Breitenfeld
(46.8500°N, 15.6333°E)
Time: 16:24:41
(UTC+00:00)

STARLINK-1221 - Pass Details

Date: 09 April 2020
Orbit: 375 x 384 km, 53.0° (Epoch: 26 May)

Event Time Altitude Azimuth Distance (km) Brightness Sun altitude
Rises 18:27:20 0° 299° (WNW) 2,269 9.0 -8.9°
Reaches altitude 10° 18:29:25 10° 303° (WNW) 1,413 7.3 -9.2°
Maximum altitude 18:32:33 62° 25° (NNE) 439 3.1 -9.7°
Enters shadow 18:34:58 16° 105° (ESE) 1,124 4.6 -10.1°
